period_start,C,m1,H,J0,J1,J2,J3,J4,J5,JA,JB,JC,JD,JJ,JK,JN,#
2018-05-16 00:01:36,0.08,0.53,0.00,24.01,27.12,29.98,13.89,47.02,1019.55,2027.05,3226.03,2947.35,3358.81,600.03,595.96,16.19,0000 0000 0000 0000 000000
2018-05-16 00:06:37,0.05,0.53,0.00,24.05,27.15,30.00,14.00,47.05,1019.55,2027.01,3224.49,2946.31,3357.68,599.97,595.62,16.24,0000 0000 0000 0000 000000
2018-05-16 00:11:38,0.02,0.54,0.00,24.08,27.17,30.01,13.92,47.05,1019.55,2027.00,3223.56,2945.87,3356.83,600.14,595.72,16.29,0000 0000 0000 0000 000000
2018-05-16 00:16:40,0.05,0.54,0.00,24.11,27.19,30.04,13.95,46.99,1019.55,2027.00,3222.46,2945.07,3355.98,600.31,595.88,16.34,0000 0000 0000 0000 000000
2018-05-16 00:21:41,0.04,0.54,0.00,24.14,27.21,30.08,13.95,46.98,1019.55,2027.00,3221.52,2944.75,3355.14,599.93,595.46,16.39,0000 0000 0000 0000 000000
2018-05-16 00:26:42,0.04,0.54,0.00,24.17,27.23,30.06,13.84,46.97,1019.55,2026.99,3220.43,2944.04,3354.27,599.76,595.07,16.44,0000 0000 0000 0000 000000
2018-05-16 00:31:44,0.05,0.55,0.00,24.21,27.26,30.10,13.85,47.02,1019.55,2026.98,3219.30,2943.49,3353.29,599.93,595.20,16.49,0000 0000 0000 0000 000000
2018-05-16 00:36:46,0.03,0.55,0.00,24.25,27.28,30.12,13.75,46.94,1019.55,2026.95,3218.40,2942.99,3352.58,599.58,594.83,16.54,0000 0000 0000 0000 000000
2018-05-16 00:41:46,0.05,0.55,0.00,24.29,27.30,30.15,13.86,46.93,1019.55,2026.97,3217.48,2942.36,3351.83,599.91,595.03,16.59,0000 0000 0000 0000 000000
2018-05-16 00:46:48,-0.01,0.55,0.00,24.33,27.33,30.18,13.92,47.04,1019.55,2026.58,3216.46,2941.87,3350.89,599.89,595.06,16.64,0000 0000 0000 0000 000000
2018-05-16 00:51:49,0.02,0.55,0.00,24.37,27.35,30.19,13.88,47.01,1019.55,2026.12,3215.45,2941.08,3349.99,600.01,595.05,16.69,0000 0000 0000 0000 000000
2018-05-16 00:56:50,0.04,0.55,0.00,24.41,27.38,30.22,13.91,46.97,1019.55,2026.03,3214.50,2940.61,3349.11,600.09,595.07,16.74,0000 0000 0000 0000 000000
2018-05-16 01:01:51,0.03,0.56,0.00,24.45,27.41,30.24,13.84,47.00,1019.55,2026.01,3213.58,2940.02,3348.37,599.87,594.64,16.79,0000 0000 0000 0000 000000
2018-05-16 01:06:52,0.05,0.56,0.00,24.48,27.44,30.28,13.90,46.91,1019.55,2026.00,3212.50,2939.46,3347.49,600.26,595.01,16.84,0000 0000 0000 0000 000000
2018-05-16 01:11:53,0.04,0.56,0.00,24.53,27.46,30.29,13.84,46.95,1019.55,2026.00,3211.43,2938.84,3346.52,599.88,594.57,16.89,0000 0000 0000 0000 000000
2018-05-16 01:16:55,0.05,0.56,0.00,24.57,27.50,30.32,13.82,46.88,1019.55,2025.99,3210.36,2938.05,3345.58,599.88,594.49,16.94,0000 0000 0000 0000 000000
2018-05-16 01:21:56,0.05,0.56,0.00,24.63,27.53,30.36,13.83,46.86,1019.55,2025.96,3209.30,2937.50,3344.65,599.85,594.36,16.99,0000 0000 0000 0000 000000
2018-05-16 01:26:57,0.00,0.57,0.00,24.67,27.56,30.39,13.83,46.92,1019.55,2025.61,3208.07,2936.79,3343.59,599.70,594.19,17.04,0000 0000 0000 0000 000000
2018-05-16 01:31:58,0.02,0.57,0.00,24.71,27.59,30.42,13.87,46.97,1019.55,2025.10,3206.83,2936.01,3342.49,600.19,594.50,17.09,0000 0000 0000 0000 000000
2018-05-16 01:37:00,0.06,0.57,0.00,24.77,27.63,30.45,13.81,46.85,1019.55,2025.02,3205.67,2935.30,3341.55,599.80,593.99,17.14,0000 0000 0000 0000 000000
2018-05-16 01:42:01,0.05,0.57,0.00,24.82,27.66,30.49,13.87,46.88,1019.55,2025.00,3204.47,2934.58,3340.55,600.31,594.38,17.19,0000 0000 0000 0000 000000
2018-05-16 01:47:02,0.04,0.57,0.00,24.86,27.70,30.54,13.82,46.93,1019.55,2025.00,3203.26,2933.96,3339.57,599.87,593.83,17.24,0000 0000 0000 0000 000000
2018-05-16 01:52:04,0.06,0.58,0.00,24.90,27.73,30.56,13.82,46.85,1019.55,2024.99,3202.23,2933.15,3338.54,600.20,594.17,17.29,0000 0000 0000 0000 000000
2018-05-16 01:57:06,0.05,0.58,0.00,24.95,27.77,30.60,13.84,46.80,1019.55,2024.92,3201.02,2932.50,3337.55,599.75,593.78,17.34,0000 0000 0000 0000 000000
2018-05-16 02:02:07,0.02,0.58,0.00,25.00,27.81,30.64,13.88,46.88,1019.56,2024.58,3199.68,2931.72,3336.42,600.79,594.45,17.39,0000 0000 0000 0000 000000
2018-05-16 02:07:08,0.02,0.58,0.00,25.05,27.85,30.68,13.85,46.87,1019.57,2024.13,3198.27,2930.74,3335.10,600.27,593.74,17.44,0000 0000 0000 0000 000000
2018-05-16 02:12:09,0.05,0.59,0.00,25.10,27.89,30.72,13.77,46.91,1019.56,2024.02,3196.87,2929.92,3333.94,599.76,593.36,17.49,0000 0000 0000 0000 000000
2018-05-16 02:17:11,0.07,0.59,0.00,25.16,27.93,30.76,13.74,46.78,1019.57,2024.00,3195.40,2928.95,3332.74,599.80,593.29,17.54,0000 0000 0000 0000 000000
2018-05-16 02:22:12,0.08,0.59,0.00,25.21,27.97,30.81,13.88,46.83,1019.57,2024.00,3193.63,2927.89,3331.23,599.95,593.30,17.59,0000 0000 0000 0000 000000
2018-05-16 02:27:13,0.07,0.60,0.00,25.26,28.01,30.86,13.84,46.88,1019.58,2023.96,3192.01,2926.89,3329.85,600.22,593.52,17.64,0000 0000 0000 0000 000000
2018-05-16 02:32:15,0.04,0.60,0.00,25.31,28.06,30.92,13.80,46.92,1019.62,2023.66,3190.27,2925.73,3328.47,599.65,592.82,17.69,0000 0000 0000 0000 000000
2018-05-16 02:37:16,0.03,0.60,0.00,25.36,28.10,30.94,13.83,46.87,1019.58,2023.10,3188.54,2924.70,3327.05,599.88,593.01,17.74,0000 0000 0000 0000 000000
2018-05-16 02:42:17,0.09,0.60,0.00,25.41,28.14,30.99,13.84,46.93,1019.57,2023.00,3186.62,2923.58,3325.64,600.11,593.05,17.79,0000 0000 0000 0000 000000
2018-05-16 02:47:19,0.09,0.61,0.00,25.43,28.18,31.03,13.85,46.83,1019.57,2023.00,3184.57,2922.28,3323.95,599.88,592.78,17.84,0000 0000 0000 0000 000000
2018-05-16 02:52:20,0.07,0.61,0.00,25.46,28.22,31.08,13.79,46.89,1019.57,2023.00,3182.94,2921.28,3322.61,599.66,592.52,17.89,0000 0000 0000 0000 000000
2018-05-16 02:57:21,0.07,0.62,0.00,25.50,28.26,31.11,13.75,46.83,1019.62,2022.88,3181.18,2920.20,3321.15,599.89,592.72,17.94,0000 0000 0000 0000 000000
2018-05-16 03:02:22,0.04,0.62,0.00,25.48,28.31,31.16,13.78,46.97,1019.65,2022.31,3179.14,2918.83,3319.53,599.57,592.41,18.00,0000 0000 0000 0000 000000
2018-05-16 03:07:24,0.09,0.62,0.00,25.43,28.35,31.20,13.86,46.85,1019.58,2022.03,3176.84,2917.41,3317.63,600.23,593.17,18.05,0000 0000 0000 0000 000000
2018-05-16 03:12:25,0.07,0.63,0.00,25.45,28.39,31.28,13.88,46.81,1019.63,2022.00,3174.87,2916.31,3316.17,600.36,593.32,18.10,0000 0000 0000 0000 000000
2018-05-16 03:17:27,0.08,0.63,0.00,25.36,28.41,31.33,13.86,46.88,1019.69,2022.00,3173.10,2915.27,3314.79,599.78,593.07,18.15,0000 0000 0000 0000 000000
2018-05-16 03:22:28,0.07,0.64,0.00,25.32,28.45,31.34,13.91,46.96,1019.80,2022.00,3171.34,2914.18,3313.34,600.25,593.53,18.20,0000 0000 0000 0000 000000
2018-05-16 03:27:29,0.06,0.64,0.00,25.34,28.47,31.35,13.85,47.00,1019.89,2021.95,3169.85,2913.22,3312.11,599.70,592.96,18.25,0000 0000 0000 0000 000000
2018-05-16 03:32:30,0.03,0.64,0.00,25.33,28.50,31.40,13.79,46.90,1019.96,2021.70,3168.45,2912.40,3310.92,600.02,593.34,18.30,0000 0000 0000 0000 000000
2018-05-16 03:37:32,0.03,0.64,0.00,25.20,28.51,31.44,13.88,46.92,1019.96,2021.33,3166.91,2911.64,3309.70,599.93,593.51,18.35,0000 0000 0000 0000 000000
2018-05-16 03:42:33,0.07,0.65,0.00,25.18,28.52,31.48,13.92,46.98,1020.00,2021.13,3164.91,2910.43,3308.32,600.14,593.79,18.40,0000 0000 0000 0000 000000
2018-05-16 03:47:35,0.05,0.65,0.00,25.18,28.52,31.52,13.88,46.99,1019.87,2021.04,3163.45,2909.78,3307.17,599.94,593.53,18.45,0000 0000 0000 0000 000000
2018-05-16 03:52:36,0.04,0.65,0.00,25.17,28.52,31.54,13.90,47.10,1019.76,2021.02,3162.18,2909.02,3306.28,600.45,593.80,18.50,0000 0000 0000 0000 000000
2018-05-16 03:57:38,0.06,0.66,0.00,25.11,28.52,31.61,13.86,46.99,1019.94,2021.06,3161.04,2908.26,3305.28,599.78,593.54,18.55,0000 0000 0000 0000 000000
2018-05-16 04:02:40,0.03,0.66,0.00,25.15,28.52,31.54,13.84,47.07,1019.82,2021.04,3159.90,2907.92,3304.47,600.03,593.58,18.60,0000 0000 0000 0000 000000
2018-05-16 04:07:41,0.05,0.66,0.00,25.19,28.50,31.49,13.78,46.99,1019.70,2021.07,3158.85,2907.14,3303.65,599.80,593.32,18.65,0000 0000 0000 0000 000000
2018-05-16 04:12:42,0.06,0.66,0.00,25.20,28.49,31.44,13.99,47.16,1019.61,2021.07,3157.55,2906.65,3302.71,600.42,593.78,18.70,0000 0000 0000 0000 000000
2018-05-16 04:17:44,0.04,0.67,0.00,25.12,28.46,31.39,13.96,47.14,1019.58,2021.19,3156.46,2906.02,3301.98,599.97,593.49,18.75,0000 0000 0000 0000 000000
2018-05-16 04:22:45,0.03,0.67,0.00,25.00,28.43,31.36,13.92,47.09,1019.58,2021.32,3155.60,2905.95,3301.19,600.17,593.81,18.80,0000 0000 0000 0000 000000
2018-05-16 04:27:46,0.07,0.67,0.00,24.96,28.40,31.32,13.83,47.16,1019.59,2021.58,3154.64,2905.24,3300.66,599.85,593.68,18.85,0000 0000 0000 0000 000000
2018-05-16 04:32:47,0.06,0.68,0.00,24.94,28.36,31.21,13.89,47.09,1019.56,2021.90,3153.47,2904.96,3299.97,600.00,593.78,18.90,0000 0000 0000 0000 000000
2018-05-16 04:37:48,0.04,0.68,0.00,24.94,28.33,31.17,13.92,47.14,1019.60,2021.95,3152.82,2904.52,3299.26,600.29,594.19,18.95,0000 0000 0000 0000 000000
2018-05-16 04:42:50,0.02,0.68,0.00,24.88,28.29,31.12,13.94,47.12,1019.57,2021.98,3151.91,2904.02,3298.84,600.17,594.09,19.00,0000 0000 0000 0000 000000
2018-05-16 04:47:51,0.03,0.68,0.00,24.89,28.26,31.08,13.93,47.27,1019.57,2021.99,3150.92,2903.94,3298.05,599.77,593.76,19.05,0000 0000 0000 0000 000000
2018-05-16 04:52:52,0.05,0.68,0.00,24.90,28.22,31.02,13.94,47.14,1019.56,2022.00,3150.05,2903.27,3297.48,600.20,594.18,19.10,0000 0000 0000 0000 000000
2018-05-16 04:57:53,0.02,0.69,0.00,24.93,28.19,31.01,13.95,47.22,1019.59,2022.02,3149.28,2903.00,3296.98,600.21,594.12,19.15,0000 0000 0000 0000 000000
2018-05-16 05:02:54,0.02,0.69,0.00,24.91,28.16,30.98,13.87,47.15,1019.61,2022.06,3148.63,2902.95,3296.32,600.17,594.07,19.20,0000 0000 0000 0000 000000
2018-05-16 05:07:56,0.05,0.69,0.00,24.92,28.13,30.98,13.89,47.12,1019.64,2022.20,3147.86,2902.41,3295.99,599.99,593.88,19.25,0000 0000 0000 0000 000000
2018-05-16 05:12:57,0.08,0.69,0.00,24.95,28.11,30.96,13.82,47.11,1019.75,2022.62,3147.04,2902.01,3295.34,599.90,593.75,19.30,0000 0000 0000 0000 000000
2018-05-16 05:17:58,0.04,0.70,0.00,24.93,28.08,30.86,13.81,47.16,1019.79,2022.94,3146.35,2901.98,3294.92,600.08,594.07,19.35,0000 0000 0000 0000 000000
2018-05-16 05:22:59,0.03,0.70,0.00,24.94,28.05,30.79,13.84,47.12,1019.76,2022.99,3145.79,2901.68,3294.15,599.78,593.92,19.40,0000 0000 0000 0000 000000
2018-05-16 05:28:01,0.02,0.70,0.00,24.98,28.02,30.75,13.84,47.00,1019.70,2022.99,3145.04,2901.06,3293.94,599.97,593.87,19.45,0000 0000 0000 0000 000000
2018-05-16 05:33:02,0.03,0.70,0.00,24.97,28.01,30.69,13.81,47.02,1019.68,2022.99,3144.06,2900.95,3293.14,599.49,593.41,19.50,0000 0000 0000 0000 000000
2018-05-16 05:38:03,0.05,0.70,0.00,25.01,27.99,30.66,13.79,46.96,1019.84,2023.01,3143.05,2900.21,3292.40,599.73,593.63,19.55,0000 0000 0000 0000 000000
2018-05-16 05:43:04,0.03,0.70,0.00,25.06,27.97,30.66,13.79,46.93,1019.98,2023.01,3142.03,2899.88,3291.63,599.30,593.18,19.60,0000 0000 0000 0000 000000
2018-05-16 05:48:06,0.04,0.71,0.00,25.06,27.96,30.64,13.88,47.10,1019.99,2023.02,3141.07,2899.10,3290.99,600.03,593.83,19.65,0000 0000 0000 0000 000000
2018-05-16 05:53:07,0.04,0.71,0.00,25.08,27.95,30.64,13.92,47.08,1020.02,2023.07,3140.11,2898.90,3290.24,600.29,594.19,19.70,0000 0000 0000 0000 000000
2018-05-16 05:58:08,0.07,0.71,0.00,25.11,27.95,30.65,13.85,47.01,1020.03,2023.25,3139.02,2898.16,3289.54,599.89,593.68,19.75,0000 0000 0000 0000 000000
2018-05-16 06:03:10,0.05,0.72,0.00,25.11,27.93,30.64,13.87,46.98,1020.02,2023.43,3138.03,2897.94,3288.85,600.38,594.17,19.80,0000 0000 0000 0000 000000
2018-05-16 06:08:11,0.06,0.72,0.00,25.15,27.92,30.65,13.72,46.94,1020.03,2023.56,3137.09,2897.18,3288.05,599.59,593.27,19.85,0000 0000 0000 0000 000000
2018-05-16 06:13:13,0.06,0.72,0.00,25.17,27.92,30.63,13.88,46.96,1020.03,2023.77,3136.12,2896.90,3287.30,600.51,594.04,19.90,0000 0000 0000 0000 000000
2018-05-16 06:18:14,0.06,0.73,0.00,25.17,27.92,30.64,13.76,46.94,1020.03,2023.84,3135.07,2896.08,3286.45,599.33,593.03,19.95,0000 0000 0000 0000 000000
2018-05-16 06:23:15,0.03,0.73,0.00,25.20,27.92,30.66,13.87,46.96,1020.03,2023.84,3134.15,2895.78,3285.72,600.11,593.79,20.00,0000 0000 0000 0000 000000
2018-05-16 06:28:16,0.04,0.73,0.00,25.24,27.92,30.65,13.88,46.93,1020.03,2023.87,3133.33,2895.06,3285.01,600.38,593.87,20.05,0000 0000 0000 0000 000000
2018-05-16 06:33:17,0.04,0.73,0.00,25.23,27.92,30.67,13.81,46.97,1020.03,2023.90,3132.47,2894.87,3284.19,600.35,593.92,20.10,0000 0000 0000 0000 000000
2018-05-16 06:38:18,0.04,0.73,0.00,25.26,27.92,30.67,13.83,46.92,1020.03,2023.84,3131.45,2894.07,3283.46,600.13,593.64,20.15,0000 0000 0000 0000 000000
2018-05-16 06:43:20,0.05,0.73,0.00,25.29,27.93,30.67,13.80,47.04,1020.03,2023.78,3130.49,2893.68,3282.72,599.69,593.14,20.20,0000 0000 0000 0000 000000
2018-05-16 06:48:21,0.04,0.74,0.00,25.29,27.94,30.67,13.79,47.09,1020.03,2023.83,3129.43,2893.02,3281.91,599.58,593.14,20.25,0000 0000 0000 0000 000000
2018-05-16 06:53:22,0.06,0.74,0.00,25.31,27.95,30.70,13.88,46.96,1020.03,2023.86,3128.26,2892.35,3281.03,600.40,593.80,20.30,0000 0000 0000 0000 000000
2018-05-16 06:58:24,0.02,0.74,0.00,25.34,27.95,30.71,13.76,46.92,1020.03,2023.76,3127.10,2891.86,3280.09,599.51,592.96,20.35,0000 0000 0000 0000 000000
2018-05-16 07:03:25,0.03,0.74,0.00,25.35,27.96,30.71,13.81,46.85,1020.03,2023.55,3125.94,2891.08,3279.27,600.34,593.66,20.40,0000 0000 0000 0000 000000
2018-05-16 07:08:27,0.05,0.75,0.00,25.38,27.97,30.71,13.85,46.85,1020.03,2023.41,3124.84,2890.47,3278.27,600.19,593.47,20.45,0000 0000 0000 0000 000000
2018-05-16 07:13:28,0.00,0.75,0.00,25.39,27.97,30.73,13.80,46.99,1020.03,2023.14,3123.92,2890.00,3277.53,600.10,593.34,20.50,0000 0000 0000 0000 000000
2018-05-16 07:18:29,0.04,0.75,0.00,25.38,28.00,30.75,13.81,47.02,1020.04,2023.06,3123.05,2889.45,3276.86,599.74,593.12,20.55,0000 0000 0000 0000 000000
2018-05-16 07:23:30,0.03,0.75,0.00,25.42,28.00,30.77,13.81,47.10,1020.04,2023.02,3121.98,2888.97,3276.02,599.83,593.00,20.60,0000 0000 0000 0000 000000
2018-05-16 07:28:31,0.06,0.75,0.00,25.41,28.01,30.78,13.84,47.19,1020.04,2023.05,3120.87,2888.29,3275.18,600.07,593.29,20.65,0000 0000 0000 0000 000000
2018-05-16 07:33:33,0.04,0.76,0.00,25.44,28.02,30.78,13.77,46.96,1020.04,2023.01,3119.74,2887.89,3274.38,599.96,593.32,20.70,0000 0000 0000 0000 000000
2018-05-16 07:38:34,0.05,0.76,0.00,25.44,28.04,30.80,13.79,46.90,1020.04,2023.01,3118.81,2887.11,3273.56,599.93,592.97,20.75,0000 0000 0000 0000 000000
2018-05-16 07:43:35,0.01,0.76,0.00,25.44,28.05,30.80,13.81,47.04,1020.04,2023.00,3117.94,2886.90,3272.93,600.08,593.21,20.81,0000 0000 0000 0000 000000
2018-05-16 07:48:36,0.06,0.76,0.00,25.46,28.06,30.83,13.70,46.93,1020.04,2023.00,3116.85,2886.10,3272.04,599.82,592.81,20.86,0000 0000 0000 0000 000000
2018-05-16 07:53:37,0.04,0.76,0.00,25.49,28.07,30.84,13.79,47.06,1020.04,2023.00,3115.84,2885.74,3271.13,599.76,592.85,20.91,0000 0000 0000 0000 000000
2018-05-16 07:58:39,0.04,0.77,0.00,25.48,28.09,30.86,13.75,46.98,1020.06,2023.00,3114.87,2885.03,3270.29,599.80,592.88,20.96,0000 0000 0000 0000 000000
2018-05-16 08:03:40,0.04,0.77,0.00,25.51,28.10,30.87,13.74,47.08,1020.05,2022.99,3113.91,2884.53,3269.55,599.56,592.59,21.01,0000 0000 0000 0000 000000
2018-05-16 08:08:42,0.03,0.77,0.00,25.52,28.11,30.89,13.89,47.08,1020.05,2022.99,3112.96,2884.00,3268.81,600.34,593.33,21.06,0000 0000 0000 0000 000000
2018-05-16 08:13:43,0.05,0.77,0.00,25.51,28.12,30.89,13.76,46.99,1020.05,2022.98,3112.04,2883.47,3267.93,599.64,592.67,21.11,0000 0000 0000 0000 000000
2018-05-16 08:18:44,0.04,0.78,0.00,25.54,28.13,30.91,13.81,47.10,1020.05,2022.97,3110.93,2882.93,3267.02,600.07,593.00,21.16,0000 0000 0000 0000 000000
2018-05-16 08:23:45,0.05,0.78,0.00,25.57,28.15,30.93,13.79,46.98,1020.15,2022.97,3109.85,2882.10,3266.08,599.93,592.83,21.21,0000 0000 0000 0000 000000
2018-05-16 08:28:46,0.03,0.78,0.00,25.57,28.16,30.96,13.89,47.08,1020.40,2022.97,3108.83,2881.80,3265.26,600.26,593.36,21.26,0000 0000 0000 0000 000000
2018-05-16 08:33:48,0.04,0.78,0.00,25.60,28.17,30.95,13.86,46.98,1020.42,2022.89,3107.81,2881.04,3264.38,600.10,593.21,21.31,0000 0000 0000 0000 000000
2018-05-16 08:38:49,0.03,0.79,0.00,25.59,28.17,30.96,13.85,47.12,1020.47,2022.84,3106.86,2880.73,3263.66,599.82,592.96,21.36,0000 0000 0000 0000 000000
2018-05-16 08:43:50,0.01,0.79,0.00,25.59,28.20,30.98,13.78,46.95,1020.52,2022.55,3105.85,2880.03,3262.88,599.90,593.07,21.41,0000 0000 0000 0000 000000
2018-05-16 08:48:51,0.04,0.79,0.00,25.61,28.20,31.00,13.78,46.98,1020.52,2022.47,3104.83,2879.61,3262.04,599.77,592.92,21.46,0000 0000 0000 0000 000000
2018-05-16 08:53:53,0.02,0.79,0.00,25.61,28.22,31.02,13.79,47.13,1020.52,2022.36,3103.82,2879.02,3261.22,600.04,592.96,21.51,0000 0000 0000 0000 000000
2018-05-16 08:58:54,0.04,0.79,0.00,25.61,28.22,31.02,13.76,47.04,1020.52,2022.18,3102.76,2878.73,3260.33,600.19,593.30,21.56,0000 0000 0000 0000 000000
2018-05-16 09:03:56,0.04,0.79,0.00,25.66,28.25,31.04,13.80,47.16,1020.52,2022.20,3101.81,2878.04,3259.55,600.08,593.11,21.61,0000 0000 0000 0000 000000
2018-05-16 09:08:57,0.03,0.80,0.00,25.63,28.25,31.05,13.81,47.02,1020.52,2022.06,3100.91,2877.71,3258.69,600.41,593.39,21.66,0000 0000 0000 0000 000000
2018-05-16 09:13:58,0.03,0.80,0.00,25.65,28.27,31.07,13.80,47.11,1020.52,2022.02,3099.99,2877.03,3257.88,600.00,593.01,21.71,0000 0000 0000 0000 000000
2018-05-16 09:18:59,0.04,0.80,0.00,25.65,28.27,31.08,13.89,47.17,1020.52,2022.01,3099.08,2876.65,3257.04,600.35,593.23,21.76,0000 0000 0000 0000 000000
2018-05-16 09:24:01,0.04,0.80,0.00,25.65,28.30,31.08,13.76,47.11,1020.52,2022.00,3098.15,2876.02,3256.17,599.96,593.01,21.81,0000 0000 0000 0000 000000
2018-05-16 09:29:02,0.04,0.80,0.00,25.67,28.30,31.11,13.84,47.17,1020.52,2022.00,3097.22,2875.63,3255.42,599.89,592.87,21.86,0000 0000 0000 0000 000000
2018-05-16 09:34:03,0.04,0.81,0.00,25.69,28.32,31.12,13.73,47.05,1020.52,2022.00,3096.23,2875.02,3254.62,599.62,592.60,21.91,0000 0000 0000 0000 000000
2018-05-16 09:39:04,0.05,0.81,0.00,25.67,28.32,31.13,13.85,47.23,1020.53,2022.00,3095.28,2874.58,3253.86,600.35,593.37,21.96,0000 0000 0000 0000 000000
2018-05-16 09:44:06,0.03,0.81,0.00,25.68,28.34,31.14,13.79,47.08,1020.54,2022.00,3094.39,2874.01,3253.03,599.91,592.76,22.01,0000 0000 0000 0000 000000
2018-05-16 09:49:07,0.04,0.81,0.00,25.70,28.35,31.14,13.79,47.03,1020.54,2021.99,3093.57,2873.69,3252.28,599.78,592.72,22.06,0000 0000 0000 0000 000000
2018-05-16 09:54:09,0.04,0.82,0.00,25.68,28.36,31.16,13.82,47.03,1020.55,2021.99,3092.66,2873.02,3251.57,600.29,593.15,22.11,0000 0000 0000 0000 000000
2018-05-16 09:59:10,0.03,0.82,0.00,25.71,28.37,31.16,13.77,47.07,1020.58,2021.98,3091.78,2872.72,3250.80,599.80,592.73,22.16,0000 0000 0000 0000 000000
2018-05-16 10:04:11,0.04,0.82,0.00,25.74,28.38,31.18,13.85,47.13,1020.71,2021.97,3090.75,2872.02,3249.98,600.26,593.17,22.21,0000 0000 0000 0000 000000
2018-05-16 10:09:13,0.05,0.82,0.00,25.72,28.40,31.19,13.80,47.01,1020.78,2021.93,3089.79,2871.51,3249.10,600.20,593.14,22.26,0000 0000 0000 0000 000000
2018-05-16 10:14:14,0.02,0.82,0.00,25.72,28.40,31.20,13.82,47.12,1020.79,2021.86,3088.86,2871.01,3248.21,600.05,593.07,22.31,0000 0000 0000 0000 000000
2018-05-16 10:19:15,0.04,0.82,0.00,25.72,28.42,31.21,13.80,47.02,1020.93,2021.73,3087.91,2870.41,3247.52,599.92,593.04,22.36,0000 0000 0000 0000 000000
2018-05-16 10:24:16,0.02,0.83,0.00,25.71,28.42,31.21,13.77,46.96,1020.99,2021.67,3087.00,2870.00,3246.78,599.80,593.10,22.41,0000 0000 0000 0000 000000
2018-05-16 10:29:17,0.02,0.83,0.00,25.74,28.43,31.23,13.83,47.17,1021.01,2021.51,3086.09,2869.51,3246.01,600.04,593.02,22.46,0000 0000 0000 0000 000000
2018-05-16 10:34:18,0.03,0.83,0.00,25.73,28.45,31.24,13.88,47.17,1021.00,2021.40,3085.20,2869.01,3245.19,600.19,593.29,22.51,0000 0000 0000 0000 000000
2018-05-16 10:39:20,0.03,0.83,0.00,25.73,28.45,31.24,13.77,47.00,1021.00,2021.12,3084.26,2868.43,3244.32,600.15,593.29,22.56,0000 0000 0000 0000 000000
2018-05-16 10:44:21,0.03,0.83,0.00,25.74,28.46,31.24,13.75,47.08,1021.00,2021.05,3083.24,2868.00,3243.54,599.84,593.03,22.61,0000 0000 0000 0000 000000
2018-05-16 10:49:22,0.04,0.83,0.00,25.72,28.47,31.24,13.97,47.19,1020.97,2021.06,3082.41,2867.55,3242.87,600.77,593.77,22.66,0000 0000 0000 0000 000000
2018-05-16 10:54:24,0.03,0.84,0.00,25.72,28.47,31.25,13.78,47.08,1020.96,2021.03,3081.36,2867.02,3242.02,599.64,592.82,22.71,0000 0000 0000 0000 000000
2018-05-16 10:59:25,0.05,0.84,0.00,25.72,28.47,31.26,13.88,47.10,1021.00,2021.02,3080.50,2866.55,3241.17,600.21,593.42,22.76,0000 0000 0000 0000 000000
2018-05-16 11:04:26,0.03,0.84,0.00,25.72,28.49,31.27,13.77,47.21,1021.01,2021.02,3079.59,2866.01,3240.42,599.99,593.13,22.81,0000 0000 0000 0000 000000
2018-05-16 11:09:27,0.05,0.84,0.00,25.70,28.50,31.28,13.84,47.17,1021.00,2021.02,3078.66,2865.55,3239.65,599.89,593.11,22.86,0000 0000 0000 0000 000000
2018-05-16 11:14:29,0.02,0.85,0.00,25.72,28.50,31.27,13.81,47.31,1020.99,2021.02,3077.75,2865.02,3238.90,599.94,593.07,22.91,0000 0000 0000 0000 000000
2018-05-16 11:19:30,0.03,0.85,0.00,25.71,28.50,31.28,13.88,47.31,1020.94,2021.01,3076.87,2864.77,3238.08,600.02,593.16,22.96,0000 0000 0000 0000 000000
2018-05-16 11:24:31,0.04,0.85,0.00,25.70,28.50,31.28,13.89,47.26,1020.95,2021.01,3075.96,2864.05,3237.26,600.02,593.28,23.01,0000 0000 0000 0000 000000
2018-05-16 11:29:33,0.03,0.85,0.00,25.68,28.50,31.29,13.71,47.02,1021.01,2021.00,3075.04,2863.84,3236.45,599.87,593.04,23.06,0000 0000 0000 0000 000000
2018-05-16 11:34:34,0.04,0.85,0.00,25.67,28.50,31.29,13.84,47.17,1021.01,2021.00,3074.11,2863.10,3235.87,600.05,593.31,23.11,0000 0000 0000 0000 000000
2018-05-16 11:39:36,0.03,0.86,0.00,25.65,28.50,31.29,13.88,47.19,1020.97,2021.00,3073.23,2862.97,3235.06,600.26,593.56,23.16,0000 0000 0000 0000 000000
2018-05-16 11:44:37,0.04,0.86,0.00,25.65,28.51,31.27,13.80,47.00,1020.93,2021.00,3072.77,2862.33,3234.31,599.96,593.32,23.21,0000 0000 0000 0000 000000
2018-05-16 11:49:38,0.01,0.86,0.00,25.63,28.51,31.28,13.84,47.23,1020.91,2021.00,3072.02,2862.01,3233.97,599.84,593.13,23.26,0000 0000 0000 0000 000000
2018-05-16 11:54:40,0.03,0.86,0.00,25.62,28.51,31.29,13.80,47.17,1020.87,2021.00,3071.16,2861.93,3233.22,599.89,593.23,23.31,0000 0000 0000 0000 000000
2018-05-16 11:59:41,0.05,0.86,0.00,25.65,28.51,31.28,13.86,47.28,1020.96,2021.00,3070.47,2861.17,3232.71,600.29,593.52,23.36,0000 0000 0000 0000 000000
2018-05-16 12:04:42,0.01,0.86,0.00,25.64,28.50,31.27,13.78,47.13,1020.96,2021.00,3069.99,2860.99,3232.02,599.95,593.19,23.41,0000 0000 0000 0000 000000
2018-05-16 12:09:43,0.03,0.87,0.00,25.61,28.50,31.27,13.85,47.15,1020.95,2021.00,3069.39,2860.86,3231.50,600.19,593.50,23.46,0000 0000 0000 0000 000000
2018-05-16 12:14:45,0.02,0.87,0.00,25.60,28.50,31.28,13.82,47.08,1020.94,2021.00,3069.01,2860.20,3231.02,599.90,593.30,23.51,0000 0000 0000 0000 000000
2018-05-16 12:19:46,0.01,0.87,0.00,25.58,28.50,31.26,13.81,47.23,1020.91,2021.00,3068.70,2860.01,3230.96,600.01,593.22,23.56,0000 0000 0000 0000 000000
2018-05-16 12:24:47,0.02,0.87,0.00,25.54,28.50,31.26,13.82,47.10,1020.99,2021.00,3068.04,2859.99,3230.31,600.04,593.59,23.61,0000 0000 0000 0000 000000
2018-05-16 12:29:48,0.01,0.87,0.00,25.55,28.50,31.24,13.90,47.31,1020.97,2021.00,3067.90,2859.82,3230.00,600.11,593.62,23.66,0000 0000 0000 0000 000000
2018-05-16 12:34:49,0.03,0.87,0.00,25.55,28.49,31.24,13.87,47.17,1020.99,2021.00,3067.18,2859.17,3229.96,600.22,593.68,23.72,0000 0000 0000 0000 000000
2018-05-16 12:39:51,0.01,0.87,0.00,25.54,28.48,31.23,13.84,47.27,1021.00,2021.00,3067.00,2859.02,3229.53,600.02,593.48,23.77,0000 0000 0000 0000 000000
2018-05-16 12:44:52,0.02,0.87,0.00,25.53,28.47,31.23,13.84,47.12,1021.00,2021.00,3066.57,2859.00,3229.04,600.35,593.76,23.82,0000 0000 0000 0000 000000
2018-05-16 12:49:53,0.01,0.87,0.00,25.50,28.47,31.23,13.85,47.25,1021.00,2021.00,3066.02,2858.92,3228.97,599.86,593.45,23.87,0000 0000 0000 0000 000000
2018-05-16 12:54:54,0.02,0.87,0.00,25.50,28.47,31.22,13.85,47.31,1020.97,2021.00,3065.93,2858.44,3228.69,599.86,593.58,23.92,0000 0000 0000 0000 000000